Other Public Products
Issued by NWS Grand Forks, ND

Home | Current Version | Previous Version | Text Only | Print | Product List | Glossary On
Versions: 1 2 3 4 5 6 7 8 9 10 11 12 13 14 15 16 17 18 19 20 21 22 23 24 25 26 27 28 29 30 31 32 33 34 35 36 37 38 39 40 41 42 43 44 45 46 47 48 49 50
000
FPUS83 KFGF 030931
OPUFGF
PRAIRIE TO PINES WEATHER ROUNDUP
NATIONAL WEATHER SERVICE EASTERN NORTH DAKOTA/GRAND FORKS ND
400 AM CDT TUE MAY 03 2016

 **SATELLITE DATA USED TO AUGMENT SKY COVER AT AUTOMATED STATIONS**
 *****  WEATHER ACROSS EASTERN NORTH DAKOTA  *****

CITY           SKY/WX    TMP DP  RH WIND       PRES   REMARKS
GRAND FORKS    CLOUDY    50  36  58 W10       29.90F
GRAND FORKS AF CLOUDY    52  35  53 W14       29.90F
GRAND CITY NWS NOT AVBL
BUXTON           N/A     44  40  83 W8          N/A
DEVILS LAKE    CLOUDY    46  40  79 W8        29.94F
FARGO          CLOUDY    46  36  68 W9        29.94S
WAHPETON ARPT  SUNNY     39  32  75 W6        29.97R
$$

 *****  WEATHER ACROSS CENTRAL AND WESTERN NORTH DAKOTA  *****

CITY           SKY/WX    TMP DP  RH WIND       PRES   REMARKS
JAMESTOWN      CLOUDY    40  36  86 SW3       29.96F
BISMARCK       PTCLDY    38  38 100 CALM      30.01S FOG
MINOT          CLEAR     55  36  48 SW12      29.95F
MINOT AFB      NOT AVBL
GARRISON         N/A     42  34  73 CALM      29.99S
WILLISTON      CLEAR     40  32  73 CALM      30.01S
DICKINSON      CLEAR     39  31  72 W5        30.02S
HETTINGER      CLEAR     34  30  85 CALM      30.05F
$$

 *****  OTHER OBSERVATIONS NORTHEAST NORTH DAKOTA  *****

CITY           SKY/WX    TMP DP  RH WIND       PRES   REMARKS
WALHALLA       FAIR      55  34  44 W15G23    29.86F
LANGDON        FAIR      46  36  66 W13       29.91S
CAVALIER       PTSUNNY   57  34  41 W16G25    29.86F
GRAFTON        FAIR      50  41  71 W10       29.90S
CANDO          FAIR      41  36  81 W9        29.95F
FORT TOTTEN      N/A     47  37  68 S2        29.95S
ROLLA          FAIR      50  36  57 W12       29.93F
RUGBY          FAIR      41  37  87 SW7       29.95S
 ***** THE ABOVE OBSERVATIONS ARE NON NWS ARE NOT QUALITY
        CONTROLLED AND MAY MIS-REPORT RAIN FOR SNOW...
$$

 *****  OTHER OBSERVATIONS SOUTHEAST NORTH DAKOTA *****

CITY           SKY/WX    TMP DP  RH WIND       PRES   REMARKS
COOPERSTOWN    NOT AVBL
VALLEY CITY    FAIR      41  41 100 W8        29.98S
OAKES            N/A    N/A N/A N/A MISG        N/A
GWINNER        FAIR      39  37  93 SW6       29.98S
SHEYENNE NWR     N/A     40  36  84 W5        29.95
BUFFALO          N/A     44  35  71 SW7         N/A
WYNDMERE         N/A     46  37  71 W8          N/A
 ***** THE ABOVE OBSERVATIONS ARE NON NWS ARE NOT QUALITY
       CONTROLLED AND MAY MIS-REPORT RAIN FOR SNOW...
$$

  *****  WEATHER ACROSS NORTHERN MINNESOTA  *****

CITY           SKY/WX    TMP DP  RH WIND       PRES   REMARKS
FLAG ISLAND    CLOUDY    55  36  47 W14       29.75F
WARROAD        CLOUDY    50  39  66 W12       29.81F
ROSEAU         MOCLDY    54  39  58 W10G17    29.82F
HALLOCK        CLOUDY    52  37  58 W10       29.85F
THF RVR FALLS  PTCLDY    48  34  57 W9        29.89F
HALSTAD        NOT AVBL
FOSSTON        CLEAR     48  34  57 SW8       29.90F
BAUDETTE       CLOUDY    53  33  46 W12       29.80F
WASKISH        PTCLDY    52  43  71 SW13G18   29.84S
CROOKSTON      CLOUDY    52  36  54 W10       29.91S
$$
  *****  WEATHER ACROSS CENTRAL AND WEST MINNESOTA  *****

CITY           SKY/WX    TMP DP  RH WIND       PRES   REMARKS
BEMIDJI        CLOUDY    48  35  60 W10       29.88F
PARK RAPIDS    PTCLDY    45  35  68 W6        29.92S
WADENA         CLOUDY    43  34  70 W6        29.94S
DETROIT LAKES  PTCLDY    50  36  57 W6        29.95S
MOORHEAD       PTCLDY    45  36  70 SW5       29.95F
FERGUS FALLS   CLEAR     45  37  76 CALM      29.95S
ELBOW LAKE     FAIR      44  36  72 NW3       29.97S
MORRIS MN      CLOUDY    45  37  76 W8        29.96S
STAPLES        CLOUDY    43  34  70 W6        29.93S
WHEATON        PTCLDY    48  41  76 W5        29.99S
$$
  *****  WEATHER ELSEWHERE ACROSS MINNESOTA  *****

CITY           SKY/WX    TMP DP  RH WIND       PRES   REMARKS
DULUTH         CLOUDY    49  31  49 W12       29.86F
INTRNTL FALLS  CLOUDY    50  31  48 W9        29.78F
ELY            CLOUDY    46  30  53 SW7       29.80F
CLOQUET        CLOUDY    50  28  43 SW10      29.87F
BRAINERD       CLOUDY    41  32  70 CALM      29.92F
HIBBING        CLOUDY    34  31  88 W3        29.84F
ALEXANDRIA     CLEAR     48  36  63 W5        29.96F
SAINT CLOUD    CLEAR     43  35  73 CALM      29.94F
MINNEAPOLIS    CLEAR     51  37  58 SW6       29.96F
$$

  *****  WEATHER ACROSS SOUTH DAKOTA  *****

CITY           SKY/WX    TMP DP  RH WIND       PRES   REMARKS
SIOUX FALLS    CLEAR     36  35  96 CALM      30.02S
BROOKINGS      CLEAR     42  39  89 SE3       30.01S
WATERTOWN      PTCLDY    40  36  86 CALM      30.00S
HURON          CLEAR     41  39  93 CALM      30.02S
SISSETON         N/A     43  37  79 NW3       29.97F
ABERDEEN       MOCLDY    37  34  89 SW5       30.01S
MITCHELL       CLEAR     45  44  97 CALM      30.03S
PIERRE         CLEAR     40  37  89 W3        30.02F
MOBRIDGE       MOCLDY    39  38  96 CALM      29.99S
RAPID CITY     CLEAR     42  35  76 NW10      30.06S
$$

  *****  SOME WEATHER IN NEARBY STATES *****

CITY           SKY/WX    TMP DP  RH WIND       PRES   REMARKS
GLASGOW MT     CLEAR     47  38  71 NE7       30.04S
GREAT FALLS MT CLEAR     39  34  82 SW9       30.10F
CHEYENNE WY    CLEAR     42  28  57 NW12      30.16S
SCOTTSBLUFF NE CLEAR     41  36  82 NW9       30.08S
OMAHA NE       CLEAR     46  42  86 SE3       30.05R
DES MOINES IA  PTCLDY    45  40  82 CALM      30.04S
DAVENPORT IA   PTCLDY    42  39  89 W6        30.01S
CHICAGO IL     CLEAR     42  35  76 NW3       29.97S
EAU CLAIRE WI  CLEAR     43  38  82 SW5       29.94S
LA CROSSE WI   CLEAR     46  40  79 S5        29.97S
$$

  *****  SOME NATIONAL WEATHER *****

CITY           SKY/WX    TMP DP  RH WIND       PRES   REMARKS
LA GUARDIA NY  RAIN      54  51  90 NE8       29.86S FOG
RALEIGH NC     LGT RAIN  65  63  93 CALM      29.86F
ATLANTA GA     MOCLDY    65  62  90 W8        29.89S
NEW ORLEANS LA CLOUDY    72  68  87 N7        29.91F
OKLAHOMA CITY  PTCLDY    43  40  89 SW5       30.07F
ALBUQUERQUE NM MOCLDY    52  37  56 NW8       30.17F
SALT LAKE CITY CLEAR     51  35  54 SE7       30.18F
LOS ANGELES CA CLEAR     59  53  80 NW3       29.97F
BOISE ID       CLEAR     55  31  39 SE8       30.09F
SEATTLE WA     PTCLDY    63  45  51 S5        29.98S
$$

*** WEATHER ACROSS MANITOBA...SASKATCHEWAN AND ONTARIO ***
                ***ONTARIO***

CITY           SKY/WX    TMP DP  RH WIND       PRES   REMARKS
GERALDTON      CLOUDY    50  32  50 S9        29.69F
THUNDER BAY    CLOUDY    37  34  87 NE2       29.75F
SIOUX LOOKOUT  CLOUDY    52  30  43 W8        29.67F
TORONTO        PTCLDY    45  39  81 CALM      29.94F
BIG TROUT LK   CLOUDY    36  34  93 NW13G24   29.61R
PICKLE LAKE    NOT AVBL
DRYDEN         CLOUDY    52  30  43 SW10      29.69F
KENORA         MOCLDY    50  34  53 W3        29.74F
$$
                *** MANITOBA***

CITY           SKY/WX    TMP DP  RH WIND       PRES   REMARKS
BRANDON        PTCLDY    43  36  75 NW13      29.90S
DAUPHIN        CLEAR     50  30  46 NW6       29.94R
ISLAND LAKE    CLEAR     41  32  70 N12       29.81
PILOT MOUND      N/A     48  36  61 W8          N/A
THE PAS        MOCLDY    43  28  56 N8        29.99S
THOMPSON       MOCLDY    37  30  75 N8G20     29.95
WINNIPEG       MOCLDY    52  37  58 W12       29.79F
LYNN LAKE      CLEAR     32  28  86 N7        30.03S
CHURCHILL      FLURRIES  30  28  93 N23G30    29.94R WCI  17
GILLAM         FLURRIES  32  30  93 N18       29.89R WCI  20
$$
                ***SASKATCHEWAN***

CITY           SKY/WX    TMP DP  RH WIND       PRES   REMARKS
ESTEVAN        CLEAR     37  30  75 W5        29.98S
KINDERSLEY     CLEAR     52  37  58 CALM      30.01F
LLOYDMINSTER   CLEAR     55  39  54 SW9       30.00R
PRINCE ALBERT  CLEAR     39  32  75 NE5       30.02R
REGINA         PTCLDY    45  28  53 W5        30.00S
YORKTON        CLEAR     46  36  66 NW5       29.98R   C1F1C2F2C3F3C4F4C5F5C6F6C7F7C8F8C9F9CaFaCbFbCcFcCdFdCe!


USA.gov is the U.S. government's official web portal to all federal, state and local government web resources and services.